EW4565 Weather Reports


Display with metric or nautical units.
time (UTC)temp
F
wind
direction
speed
MPH
gust
MPH
rain 1hr
in
rain 24hr
in
rain mn
in
humidity
%
barometer
mb
20200713184915 60 28 1.0 4.0 0.00 0.00 0.00 47 1015.1
20200713184325 60 28 2.0 5.0 0.00 0.00 0.00 48 1015.1
20200713183733 60 28 2.0 5.0 0.00 0.00 0.00 50 1015.4
20200713183228 60 28 2.0 5.0 0.00 0.00 0.00 48 1015.2
20200713182601 60 31 1.0 5.0 0.00 0.00 0.00 46 1015.4
20200713182009 60 26 2.0 4.0 0.00 0.00 0.00 47 1015.2
20200713181420 60 359 2.0 5.0 0.00 0.00 0.00 47 1015.4
20200713180831 60 102 0.0 4.0 0.00 0.00 0.00 51 1015.4
20200713180245 59 156 1.0 6.0 0.00 0.00 0.00 47 1015.4
20200713175737 60 156 1.0 6.0 0.00 0.00 0.00 47 1015.5
20200713175117 60 322 1.0 4.0 0.00 0.00 0.00 49 1015.5
20200713174524 59 319 2.0 6.0 0.00 0.00 0.00 51 1015.6
20200713173932 59 318 2.0 4.0 0.00 0.00 0.00 49 1015.5
20200713173339 59 109 0.0 1.0 0.00 0.00 0.00 55 1015.5
20200713172826 58 110 0.0 0.0 0.00 0.00 0.00 53 1015.5
20200713172105 58 109 1.0 3.0 0.00 0.04 0.00 53 1015.5
20200713171508 58 110 1.0 4.0 0.00 0.04 0.00 55 1015.5
20200713171008 58 110 1.0 4.0 0.00 0.04 0.00 58 1015.5
20200713170507 57 112 0.0 3.0 0.00 0.04 0.00 61 1015.5
20200713170007 57 112 0.0 2.0 0.00 0.04 0.00 61 1015.6
20200713165506 57 112 1.0 3.0 0.00 0.04 0.00 63 1015.6
20200713165005 56 112 1.0 3.0 0.00 0.04 0.00 65 1015.7
20200713164503 56 112 1.0 4.0 0.00 0.04 0.00 68 1015.6
20200713164003 55 112 1.0 4.0 0.00 0.04 0.00 68 1015.6
20200713163458 55 112 1.0 4.0 0.00 0.04 0.00 71 1015.7
20200713162958 55 113 1.0 3.0 0.00 0.04 0.00 71 1015.8
20200713162457 54 113 1.0 3.0 0.00 0.04 0.00 74 1015.7
20200713161957 54 113 0.0 3.0 0.00 0.04 0.00 76 1015.9
20200713161456 54 113 0.0 2.0 0.00 0.04 0.00 74 1015.9
20200713160957 53 113 0.0 0.0 0.00 0.04 0.00 78 1015.9
20200713160452 53 113 0.0 2.0 0.00 0.04 0.00 78 1015.9
20200713155953 53 113 0.0 2.0 0.00 0.04 0.00 78 1015.9
20200713155454 52 112 0.0 3.0 0.00 0.04 0.00 78 1015.9
20200713154953 52 113 0.0 3.0 0.00 0.04 0.00 79 1016.0
20200713154450 52 113 0.0 2.0 0.00 0.04 0.00 79 1015.9
20200713153950 52 113 0.0 2.0 0.00 0.04 0.00 80 1015.9
20200713153446 52 113 1.0 3.0 0.00 0.04 0.00 78 1015.8
20200713152946 51 113 1.0 3.0 0.00 0.04 0.00 79 1015.9
20200713152443 51 113 1.0 3.0 0.00 0.04 0.00 77 1015.9
20200713151944 52 113 1.0 4.0 0.00 0.04 0.00 80 1015.9
20200713151444 52 113 1.0 4.0 0.00 0.04 0.00 81 1015.9
20200713150944 51 114 1.0 4.0 0.00 0.04 0.00 82 1015.9
20200713150439 51 114 1.0 4.0 0.00 0.04 0.00 82 1015.8
20200713145939 51 116 0.0 3.0 0.00 0.04 0.00 84 1015.9
20200713145439 51 125 0.0 3.0 0.00 0.04 0.00 83 1015.8
20200713144940 51 156 0.0 1.0 0.00 0.04 0.00 84 1015.8
20200713144438 51 156 0.0 1.0 0.00 0.04 0.00 86 1015.9
20200713144053 49 199 0.0 1.0 0.00 0.04 0.00 90 1016.0
20200713144026 49 195 0.0 1.0 0.00 0.04 0.00 89 1016.0
20200713144002 50 194 0.0 1.0 0.00 0.04 0.00 89 1016.0
20200713143938 50 150 0.0 1.0 0.00 0.04 0.00 87 1016.0
20200713143906 47 152 0.0 2.0 0.00 0.04 0.00 92 1016.1
20200713143850 48 201 0.0 2.0 0.00 0.04 0.00 92 1016.1
20200713143842 48 200 0.0 1.0 0.00 0.04 0.00 91 1016.0
20200713140246 47 151 0.0 1.0 0.00 0.04 0.00 93 1016.1
20200713135733 47 151 0.0 3.0 0.00 0.04 0.00 93 1016.0
20200713135127 46 152 0.0 1.0 0.00 0.04 0.00 94 1016.1
20200713134516 46 152 0.0 1.0 0.00 0.04 0.00 94 1016.0
20200713133925 45 152 0.0 1.0 0.00 0.04 0.00 94 1016.1
20200713133423 44 152 0.0 1.0 0.00 0.04 0.00 94 1016.2
20200713132825 44 153 0.0 0.0 0.00 0.04 0.00 94 1016.1
20200713132237 42 153 0.0 1.0 0.00 0.04 0.00 94 1016.2
20200713131615 41 122 0.0 1.0 0.00 0.04 0.00 94 1016.2
20200713131023 41 122 0.0 1.0 0.00 0.04 0.00 93 1016.0
20200713130434 41 122 0.0 1.0 0.00 0.04 0.00 94 1016.0
20200713125926 40 122 0.0 1.0 0.00 0.04 0.00 93 1016.1
20200713125336 40 122 0.0 1.0 0.00 0.04 0.00 93 1016.0
20200713124743 40 118 0.0 0.0 0.00 0.04 0.00 93 1016.1
20200713124114 40 118 0.0 0.0 0.00 0.04 0.00 93 1016.1
20200713123519 40 118 0.0 1.0 0.00 0.04 0.00 93 1016.1
20200713123020 40 118 0.0 1.0 0.00 0.04 0.00 93 1015.9
20200713122419 40 115 0.0 2.0 0.00 0.04 0.00 93 1015.8
20200713121830 40 115 0.0 2.0 0.00 0.04 0.00 93 1015.9
20200713121239 40 115 0.0 2.0 0.00 0.04 0.00 93 1015.9
20200713120601 40 114 0.0 0.0 0.00 0.04 0.00 93 1015.9
20200713120052 40 115 0.0 0.0 0.00 0.04 0.00 93 1015.9
20200713115459 40 115 0.0 1.0 0.00 0.04 0.00 93 1015.8
20200713114955 40 115 0.0 1.0 0.00 0.04 0.00 93 1015.7
20200713114455 41 114 0.0 2.0 0.00 0.04 0.00 92 1015.8
20200713113956 41 115 0.0 2.0 0.00 0.04 0.00 93 1015.8
20200713113454 41 115 0.0 0.0 0.00 0.04 0.00 92 1015.8
20200713112956 42 114 0.0 1.0 0.00 0.04 0.00 93 1015.7
20200713112455 42 115 0.0 1.0 0.00 0.04 0.00 93 1015.6
20200713111950 42 114 0.0 2.0 0.00 0.04 0.00 93 1015.6
20200713111454 42 115 1.0 3.0 0.00 0.04 0.00 93 1015.6
20200713110952 42 115 1.0 3.0 0.00 0.04 0.00 93 1015.4
20200713110452 42 115 0.0 2.0 0.00 0.04 0.00 93 1015.4
20200713105950 42 114 0.0 2.0 0.00 0.04 0.00 93 1015.4
20200713105449 42 114 0.0 2.0 0.00 0.04 0.00 93 1015.4
20200713104946 42 115 0.0 0.0 0.00 0.04 0.00 93 1015.4
20200713104444 42 115 0.0 2.0 0.00 0.04 0.00 93 1015.4
20200713103942 42 114 0.0 2.0 0.00 0.04 0.00 93 1015.4
20200713103441 42 115 1.0 2.0 0.00 0.04 0.00 93 1015.4
20200713102941 42 115 0.0 2.0 0.00 0.04 0.00 93 1015.4
20200713102443 42 115 1.0 2.0 0.00 0.04 0.00 93 1015.4
20200713101937 42 115 1.0 3.0 0.00 0.04 0.00 93 1015.4
20200713101436 42 115 1.0 3.0 0.00 0.04 0.00 93 1015.4
20200713100936 42 114 0.0 2.0 0.00 0.04 0.00 93 1015.4
20200713100437 42 115 0.0 2.0 0.00 0.04 0.00 93 1015.4
20200713095936 42 115 0.0 1.0 0.00 0.04 0.00 93 1015.1
20200713095435 41 115 0.0 2.0 0.00 0.04 0.00 93 1015.1
20200713094931 41 115 0.0 2.0 0.00 0.04 0.00 93 1014.9
20200713094430 41 114 0.0 0.0 0.00 0.04 0.00 93 1014.8
20200713093933 42 115 0.0 1.0 0.00 0.04 0.00 93 1014.8
20200713093429 42 115 0.0 1.0 0.00 0.04 0.00 93 1014.8
20200713092930 42 115 0.0 0.0 0.00 0.04 0.00 93 1014.7
20200713092432 42 114 0.0 0.0 0.00 0.04 0.00 93 1014.6
20200713091426 42 114 1.0 3.0 0.00 0.04 0.00 92 1014.5
20200713090928 42 114 1.0 3.0 0.00 0.04 0.00 92 1014.3
20200713090426 42 115 0.0 3.0 0.00 0.04 0.00 92 1014.3
20200713085928 42 115 0.0 0.0 0.00 0.04 0.00 92 1014.4
20200713085425 42 115 0.0 2.0 0.00 0.04 0.00 92 1014.4
20200713084925 43 115 0.0 2.0 0.00 0.04 0.00 92 1014.4
20200713084419 43 115 0.0 0.0 0.00 0.04 0.00 92 1014.4
20200713083919 43 115 0.0 0.0 0.00 0.04 0.00 92 1014.4
20200713083418 43 114 0.0 0.0 0.00 0.04 0.00 92 1014.4
20200713082920 43 114 0.0 1.0 0.00 0.04 0.00 92 1014.4
20200713082420 43 115 0.0 1.0 0.00 0.04 0.00 92 1014.4
20200713081919 43 115 0.0 1.0 0.00 0.04 0.00 92 1014.5
20200713081414 43 115 0.0 1.0 0.00 0.04 0.00 92 1014.5
20200713080915 44 115 0.0 1.0 0.00 0.04 0.00 92 1014.6
20200713080414 44 114 0.0 2.0 0.00 0.04 0.00 92 1014.5
20200713075915 44 115 0.0 2.0 0.00 0.04 0.00 92 1014.6
20200713075413 44 114 0.0 1.0 0.00 0.04 0.00 92 1014.6
20200713074913 44 115 0.0 2.0 0.00 0.04 0.00 92 1014.5
20200713074406 44 115 0.0 2.0 0.00 0.04 0.00 92 1014.5
20200713073903 44 114 0.0 0.0 0.00 0.04 0.00 92 1014.5
20200713073403 44 115 0.0 2.0 0.00 0.04 0.00 92 1014.4
20200713072900 44 115 0.0 2.0 0.00 0.04 0.00 92 1014.4
20200713072401 44 115 0.0 1.0 0.00 0.04 0.00 92 1014.5
20200713071854 44 115 0.0 1.0 0.00 0.04 0.00 92 1014.3
20200713071352 44 115 0.0 1.0 0.00 0.04 0.00 92 1014.4
20200713070852 44 114 0.0 1.0 0.00 0.04 0.00 92 1014.5
20200713070350 44 115 0.0 1.0 0.00 0.04 0.00 92 1014.3
20200713065850 44 115 0.0 1.0 0.00 0.04 0.00 92 1014.3
20200713065351 44 115 0.0 3.0 0.00 0.04 0.00 92 1014.3
20200713064845 44 115 0.0 3.0 0.00 0.04 0.00 92 1014.3
20200713064346 44 114 0.0 1.0 0.00 0.04 0.00 92 1014.3
20200713063844 44 115 0.0 0.0 0.00 0.04 0.00 92 1014.4
20200713063343 44 115 0.0 2.0 0.00 0.04 0.00 92 1014.3
20200713062845 44 114 1.0 2.0 0.00 0.04 0.00 92 1014.2
20200713062345 45 114 1.0 2.0 0.00 0.04 0.00 92 1014.2
20200713061843 45 115 0.0 0.0 0.00 0.04 0.00 91 1014.2
20200713061343 45 115 0.0 0.0 0.00 0.04 0.00 92 1014.2
20200713060845 45 114 0.0 0.0 0.00 0.04 0.00 92 1014.1
20200713060344 45 115 1.0 3.0 0.00 0.04 0.00 92 1014.2
20200713055841 45 115 1.0 3.0 0.00 0.04 0.04 92 1014.2
20200713054842 45 115 0.0 0.0 0.00 0.04 0.04 92 1014.3
20200713054339 45 115 0.0 1.0 0.00 0.04 0.04 92 1014.2
20200713053841 45 114 0.0 1.0 0.00 0.04 0.04 92 1014.2
20200713053341 45 114 0.0 1.0 0.00 0.04 0.04 92 1014.1
20200713052835 45 115 1.0 3.0 0.00 0.04 0.04 92 1014.1
20200713052333 45 115 1.0 3.0 0.00 0.04 0.04 91 1014.1
20200713051831 45 114 1.0 3.0 0.00 0.04 0.04 91 1014.2
20200713051333 45 115 1.0 2.0 0.00 0.04 0.04 91 1014.2
20200713050831 45 115 1.0 3.0 0.00 0.04 0.04 90 1014.1
20200713050330 46 114 1.0 3.0 0.00 0.04 0.04 90 1013.9
20200713045828 46 115 1.0 3.0 0.00 0.04 0.04 90 1013.9
20200713045327 46 114 1.0 3.0 0.00 0.04 0.04 90 1013.8
20200713044827 47 115 0.0 1.0 0.00 0.04 0.04 90 1013.9
20200713044326 47 115 0.0 3.0 0.00 0.04 0.04 90 1013.8
20200713043824 47 114 1.0 3.0 0.00 0.04 0.04 90 1013.9
20200713043324 47 115 0.0 2.0 0.00 0.04 0.04 90 1014.1
20200713042817 47 114 0.0 3.0 0.00 0.04 0.04 90 1014.1
20200713042317 47 115 0.0 3.0 0.00 0.04 0.04 90 1014.1
20200713041817 48 115 1.0 3.0 0.00 0.04 0.04 89 1014.2
20200713041318 48 115 1.0 3.0 0.00 0.04 0.04 88 1014.1
20200713040818 48 114 0.0 1.0 0.00 0.04 0.04 89 1013.9
20200713040318 48 115 0.0 1.0 0.00 0.04 0.04 88 1013.9
20200713035811 49 115 0.0 1.0 0.00 0.04 0.04 88 1013.9
20200713035311 49 115 1.0 3.0 0.00 0.04 0.04 87 1013.8
20200713034811 49 115 1.0 3.0 0.00 0.04 0.04 87 1013.8
20200713034312 50 114 0.0 1.0 0.00 0.04 0.04 87 1013.8
20200713033813 50 114 0.0 1.0 0.00 0.04 0.04 86 1013.8
20200713033312 50 114 0.0 3.0 0.00 0.04 0.04 85 1013.8
20200713032808 50 115 0.0 3.0 0.00 0.04 0.04 85 1013.8
20200713032308 50 115 0.0 1.0 0.00 0.04 0.04 84 1013.8
20200713031808 50 115 0.0 1.0 0.00 0.04 0.04 85 1013.8
20200713031308 50 115 0.0 2.0 0.00 0.04 0.04 85 1013.8
20200713030806 50 115 0.0 3.0 0.01 0.04 0.04 86 1013.8
20200713030306 51 135 0.0 3.0 0.02 0.04 0.04 87 1013.8
20200713025801 51 125 0.0 3.0 0.02 0.04 0.04 87 1013.7
20200713025303 51 125 0.0 2.0 0.02 0.04 0.04 86 1013.7
20200713024801 51 124 0.0 2.0 0.02 0.04 0.04 86 1013.6
20200713024303 51 125 0.0 2.0 0.02 0.04 0.04 86 1013.7
20200713023800 51 125 0.0 2.0 0.02 0.04 0.04 87 1013.6
20200713023259 51 124 1.0 5.0 0.02 0.04 0.04 88 1013.6
20200713022756 51 118 1.0 5.0 0.02 0.04 0.04 87 1013.7
20200713022256 51 166 1.0 4.0 0.02 0.04 0.04 88 1013.7
20200713021756 51 186 0.0 2.0 0.03 0.04 0.04 87 1013.6
20200713021256 50 193 1.0 5.0 0.03 0.04 0.04 86 1013.5
20200713020754 50 193 1.0 5.0 0.02 0.03 0.03 85 1013.8
20200713020254 51 171 1.0 5.0 0.02 0.02 0.02 84 1014.3
20200713015750 51 171 1.0 3.0 0.02 0.02 0.02 82 1014.4
20200713015250 52 171 1.0 3.0 0.02 0.02 0.02 79 1014.4
20200713014748 52 171 1.0 3.0 0.02 0.02 0.02 77 1013.9
20200713014247 53 171 0.0 4.0 0.01 0.02 0.02 73 1013.6
20200713013748 53 191 0.0 9.0 0.01 0.02 0.02 70 1013.6
20200713013247 53 218 1.0 9.0 0.02 0.02 0.02 70 1013.5
20200713012748 53 218 2.0 10.0 0.02 0.02 0.02 68 1013.3
20200713012246 54 316 3.0 10.0 0.02 0.02 0.02 67 1013.3
20200713011643 54 266 5.0 18.0 0.01 0.01 0.01 64 1013.4
20200713011036 55 312 4.0 18.0 0.01 0.01 0.01 64 1013.5
20200713010532 55 320 2.0 11.0 0.01 0.01 0.01 64 1013.4
20200713005935 55 343 3.0 10.0 0.01 0.01 0.01 65 1013.1
20200713005430 54 142 4.0 8.0 0.01 0.01 0.01 65 1013.2
20200713004840 54 168 4.0 11.0 0.01 0.01 0.01 66 1013.0
20200713004247 55 144 3.0 9.0 0.01 0.01 0.01 67 1012.7
20200713003608 57 237 3.0 11.0 0.01 0.01 0.01 61 1012.7
20200713003057 58 320 3.0 11.0 0.00 0.00 0.00 58 1012.4
20200713002506 58 179 3.0 12.0 0.00 0.00 0.00 55 1012.3
20200713001912 58 201 3.0 8.0 0.00 0.00 0.00 53 1012.0
20200713001319 58 198 3.0 13.0 0.00 0.00 0.00 52 1011.7
20200713000726 58 252 4.0 19.0 0.00 0.00 0.00 53 1011.6
20200713000059 58 294 7.0 19.0 0.00 0.00 0.00 52 1011.4
20200712235505 58 280 8.0 32.0 0.00 0.00 0.00 51 1011.4
20200712234917 58 4 12.0 32.0 0.00 0.00 0.00 51 1011.0
20200712234327 59 324 14.0 32.0 0.00 0.00 0.00 50 1010.8
20200712233736 61 359 12.0 32.0 0.00 0.00 0.00 47 1010.7
20200712233233 62 312 13.0 31.0 0.00 0.00 0.00 46 1010.1
20200712232605 65 343 12.0 25.0 0.00 0.00 0.00 42 1009.8
20200712232010 66 10 12.0 22.0 0.00 0.00 0.00 37 1009.3
20200712231421 68 282 11.0 22.0 0.00 0.00 0.00 33 1008.8
20200712230831 69 330 9.0 20.0 0.00 0.00 0.00 35 1008.5
20200712230240 69 317 9.0 16.0 0.00 0.00 0.00 35 1008.5
20200712225722 68 340 11.0 21.0 0.00 0.00 0.00 35 1008.3
20200712225042 68 339 11.0 21.0 0.00 0.00 0.00 33 1008.3
20200712224455 69 283 11.0 18.0 0.00 0.00 0.00 32 1008.3
20200712223906 70 330 9.0 18.0 0.00 0.00 0.00 31 1008.3
20200712223314 70 326 11.0 21.0 0.00 0.00 0.00 31 1008.1
20200712222720 70 335 11.0 21.0 0.00 0.00 0.00 34 1008.0
20200712222100 70 306 11.0 19.0 0.00 0.00 0.00 34 1007.7
20200712221555 69 354 11.0 17.0 0.00 0.00 0.00 35 1007.9
20200712221003 69 350 11.0 21.0 0.00 0.00 0.00 34 1008.4
20200712220414 69 322 12.0 21.0 0.00 0.00 0.00 38 1008.4
20200712215819 70 333 12.0 21.0 0.00 0.00 0.00 37 1008.3
20200712215227 72 289 10.0 21.0 0.00 0.00 0.00 30 1008.1
20200712214723 72 305 8.0 21.0 0.00 0.00 0.00 28 1008.0
20200712214220 73 301 4.0 21.0 0.00 0.00 0.00 23 1007.9
20200712213541 74 146 3.0 9.0 0.00 0.00 0.00 23 1008.2
20200712213032 73 270 2.0 9.0 0.00 0.00 0.00 23 1008.2
20200712212440 73 316 4.0 15.0 0.00 0.00 0.00 26 1008.0
20200712211937 72 9 8.0 15.0 0.00 0.00 0.00 26 1008.0
20200712211342 72 295 9.0 15.0 0.00 0.00 0.00 25 1007.9
20200712210751 72 339 5.0 13.0 0.00 0.00 0.00 28 1008.0
20200712210107 73 323 2.0 9.0 0.00 0.00 0.00 27 1008.3
20200712205507 71 317 2.0 7.0 0.00 0.00 0.00 25 1008.4
20200712204920 71 313 2.0 7.0 0.00 0.00 0.00 26 1008.4
20200712204325 71 164 4.0 11.0 0.00 0.00 0.00 27 1008.3
20200712203822 70 328 4.0 11.0 0.00 0.00 0.00 28 1008.3
20200712203229 70 32 4.0 8.0 0.00 0.00 0.00 27 1008.5
20200712202550 70 346 4.0 15.0 0.00 0.00 0.00 27 1008.6
20200712201956 70 340 4.0 10.0 0.00 0.00 0.00 29 1008.6
20200712201401 70 39 4.0 10.0 0.00 0.00 0.00 32 1008.7
20200712200806 70 18 3.0 9.0 0.00 0.00 0.00 32 1008.8
20200712200213 69 329 5.0 14.0 0.00 0.00 0.00 31 1009.1
20200712195543 69 335 5.0 13.0 0.00 0.00 0.00 34 1008.9
20200712195037 69 339 5.0 13.0 0.00 0.00 0.00 34 1009.2
20200712194445 68 12 5.0 11.0 0.00 0.00 0.00 36 1009.4
20200712193852 68 347 6.0 9.0 0.00 0.00 0.00 40 1009.5
20200712193300 67 316 6.0 11.0 0.00 0.00 0.00 42 1009.1
20200712192701 67 343 5.0 10.0 0.00 0.00 0.00 46 1009.5
20200712192035 67 337 4.0 9.0 0.00 0.00 0.00 46 1009.5
20200712191530 67 329 4.0 6.0 0.00 0.00 0.00 47 1009.6
20200712190938 67 347 4.0 6.0 0.00 0.00 0.00 44 1009.5
20200712190414 67 321 4.0 8.0 0.00 0.00 0.00 48 1009.7
20200712185735 66 343 4.0 8.0 0.00 0.00 0.00 52 1009.8
20200712185058 66 347 3.0 8.0 0.00 0.00 0.00 56 1009.9